Regional Weather Roundup
Issued by NWS Cleveland, OH

Home | Current Version | Previous Version | Text Only | Print | Product List | Glossary Off
Versions: 1 2 3 4 5 6 7 8 9 10 11 12 13 14 15 16 17 18 19 20 21 22 23 24 25 26 27 28 29 30 31 32 33 34 35 36 37 38 39 40 41 42 43 44 45 46 47 48 49 50

481
ASUS41 KCLE 241000
RWRCLE
OHIO REGIONAL WEATHER ROUNDUP
NATIONAL WEATHER SERVICE WILMINGTON, OH
600 AM EDT TUE APR 24 2018

NOTE: "FAIR" INDICATES FEW OR NO CLOUDS BELOW 12,000 FEET WITH NO
SIGNIFICANT WEATHER AND/OR OBSTRUCTIONS TO VISIBILITY.

OHZ001>008-015>018-024>027-034-035-043-044-241100-
   NORTHWEST OHIO

CITY           SKY/WX    TMP DP  RH WIND       PRES   REMARKS
DEFIANCE       CLOUDY    53  48  83 E7        30.06F
FINDLAY        CLOUDY    55  45  68 E9        30.05F
TOLEDO EXPRESS CLOUDY    55  46  71 E10       30.09S
TOLEDO EXEC    CLOUDY    52  46  80 E9        30.10F
LIMA           CLOUDY    52  48  86 E9        30.04F
$$

OHZ009>014-019>023-028>033-038-089-241100-
   NORTHEAST OHIO

CITY           SKY/WX    TMP DP  RH WIND       PRES   REMARKS
CLE-HOPKINS    CLOUDY    57  45  64 SE10      30.14F
CLE-LAKEFRONT  CLOUDY    58  44  60 E12       30.12S
CUY CO. ARPT   NOT AVBL
LORAIN-ELYRIA  CLOUDY    55  40  56 E7        30.12S
ASHTABULA      CLOUDY    54  46  74 SE12      30.19S
AKRON-CANTON   CLOUDY    56  44  64 SE12      30.13S
WOOSTER        NOT AVBL
MANSFIELD      CLOUDY    53  46  77 E14       30.09S
YOUNGSTOWN     CLOUDY    52  45  77 SE10      30.16F
$$

OHZ042-051>053-060>062-070>072-077>081-241100-
  SOUTHWEST OHIO

CITY           SKY/WX    TMP DP  RH WIND       PRES   REMARKS
CINC-COVINGTON LGT RAIN  52  51  97 E10       29.95F
CINC-LUNKEN    LGT RAIN  52  51  97 NE7       29.97F
HAMILTON       LGT RAIN  52  49  89 E7        29.99F
DAYTON         NOT AVBL
WRIGHT-PAT AFB CLOUDY    53  48  82 E9        30.00F
DAYTON GENERAL CLOUDY    53  48  83 E12       29.98F
WILMINGTON     LGT RAIN  50  50 100 E9        29.99F
$$

OHZ036-037-039>041-045>050-054>059-063>069-073>076-082>088-241100-
  CENTRAL AND SOUTHEAST OHIO

CITY           SKY/WX    TMP DP  RH WIND       PRES   REMARKS
COLUMBUS       LGT RAIN  54  49  83 E15       30.04F
OSU AIRPORT    LGT RAIN  53  49  86 E10       30.04F
BOLTON FIELD   CLOUDY    53  49  88 E13       30.04S
RICKENBACK AFB NOT AVBL
NEWARK         LGT RAIN  53  49  86 E8        30.06F
MARION         LGT RAIN  53  47  79 SE15      30.07S
LANCASTER      CLOUDY    53  49  86 E8        30.05S
ZANESVILLE     NOT AVBL
NEW PHILLY     CLOUDY    56  45  66 E12G21    30.12F
$$




USA.gov is the U.S. government's official web portal to all federal, state and local government web resources and services.